カタログに戻る

STARLINK-3445

運用中通信VLEO
NORAD 51717·PAYLOAD·🇺🇸 United States

打ち上げ Feb 21, 2022 から Cape Canaveral Space Force Station

Loading…

次のパス (今後24時間)

TLE

最新Source: CelesTrak SupGP

元期: Sep 15, 2026, 01:49 UTC

1 51717C 22016D   26258.07618056 -.00023053  00000+0 -74135-3 0  2583
2 51717  53.1590 185.0656 0001481  83.4482 359.4847 15.31712054    10

AllMySatでSTARLINK-3445をリアルタイム追跡

Download on the App Store